User: anonymous   Login
Location: Unspecified
(0.0000°N, 0.0000°E)
Time: 03:55:38
(UTC+00:00)
Language:

NOAA 17 - Orbit

View from above orbital plane
View from above orbital plane
View from above satellite
View from above satellite

Ground track
Ground track

The orbit data is extracted from the following two-line orbital elements,

1 27453U 02032A   15117.51958171  .00000116  00000-0  67342-4 0  9994
2 27453 098.3373 106.0325 0011215 337.7876 022.2817 14.24875708667449
Epoch (UTC): 27 April 2015 12:28:11
Eccentricity: 0.0011215
inclination: 98.3373°
perigee height: 801 km
apogee height: 817 km
right ascension of ascending node: 106.0325°
argument of perigee: 337.7876°
revolutions per day: 14.24875708
mean anomaly at epoch: 22.2817°
orbit number at epoch: 66744

The dashed part of the orbit path shows where the satellite is in the earth's shadow,  

DLR